Time,TemperatureF,DewpointF,PressureIn,WindDirection,WindDirectionDegrees,WindSpeedMPH,WindSpeedGustMPH,Humidity,HourlyPrecipIn,Conditions,Clouds,dailyrainin,SoftwareType,DateUTC
2013-02-17 00:00:00,19.9,9.0,30.34,ENE,70,0.0,0.0,64,0.00,,,0.00,weatherlink.com 1.10,2013-02-17 07:00:00,
2013-02-17 00:15:00,22.1,11.0,30.34,ENE,70,0.0,0.0,62,0.00,,,0.00,weatherlink.com 1.10,2013-02-17 07:15:00,
2013-02-17 00:30:00,21.0,9.0,30.33,ENE,70,0.0,1.0,61,0.00,,,0.00,weatherlink.com 1.10,2013-02-17 07:30:00,
2013-02-17 00:45:00,19.8,8.0,30.32,ENE,72,3.0,4.0,61,0.00,,,0.00,weatherlink.com 1.10,2013-02-17 07:45:00,
2013-02-17 01:00:00,18.9,8.0,30.31,ENE,73,2.0,4.0,62,0.00,,,0.00,weatherlink.com 1.10,2013-02-17 08:00:00,
2013-02-17 01:15:00,19.3,9.0,30.31,ENE,73,0.0,1.0,64,0.00,,,0.00,weatherlink.com 1.10,2013-02-17 08:15:00,
2013-02-17 01:30:00,19.5,9.0,30.31,ENE,73,0.0,0.0,64,0.00,,,0.00,weatherlink.com 1.10,2013-02-17 08:30:00,
2013-02-17 01:45:00,18.2,9.0,30.30,NE,54,2.0,3.0,66,0.00,,,0.00,weatherlink.com 1.10,2013-02-17 08:45:00,
2013-02-17 02:00:00,18.4,9.0,30.30,NE,54,0.0,2.0,67,0.00,,,0.00,weatherlink.com 1.10,2013-02-17 09:00:00,
2013-02-17 02:15:00,19.8,9.0,30.29,NE,54,0.0,0.0,64,0.00,,,0.00,weatherlink.com 1.10,2013-02-17 09:15:00,
2013-02-17 02:30:00,18.6,8.0,30.28,NE,54,0.0,0.0,63,0.00,,,0.00,weatherlink.com 1.10,2013-02-17 09:30:00,
2013-02-17 02:45:00,17.2,7.0,30.27,NE,55,0.0,0.0,64,0.00,,,0.00,weatherlink.com 1.10,2013-02-17 09:45:00,
2013-02-17 03:00:00,16.8,8.0,30.26,NE,55,2.0,4.0,68,0.00,,,0.00,weatherlink.com 1.10,2013-02-17 10:00:00,
2013-02-17 03:15:00,16.9,8.0,30.25,NE,54,2.0,3.0,68,0.00,,,0.00,weatherlink.com 1.10,2013-02-17 10:15:00,
2013-02-17 03:30:00,16.4,7.0,30.24,NE,54,3.0,5.0,67,0.00,,,0.00,weatherlink.com 1.10,2013-02-17 10:30:00,
2013-02-17 03:45:00,17.8,9.0,30.23,NE,53,1.0,2.0,67,0.00,,,0.00,weatherlink.com 1.10,2013-02-17 10:45:00,
2013-02-17 04:00:00,18.8,9.0,30.22,NE,54,0.0,0.0,66,0.00,,,0.00,weatherlink.com 1.10,2013-02-17 11:00:00,
2013-02-17 04:15:00,18.6,8.0,30.21,NE,54,0.0,0.0,64,0.00,,,0.00,weatherlink.com 1.10,2013-02-17 11:15:00,
2013-02-17 04:30:00,17.6,8.0,30.20,NE,53,2.0,3.0,65,0.00,,,0.00,weatherlink.com 1.10,2013-02-17 11:30:00,
2013-02-17 04:45:00,17.7,7.0,30.19,NE,55,3.0,4.0,64,0.00,,,0.00,weatherlink.com 1.10,2013-02-17 11:45:00,
2013-02-17 05:01:00,17.4,7.0,30.19,NE,55,0.0,4.0,64,0.00,,,0.00,weatherlink.com 1.10,2013-02-17 12:01:00,
2013-02-17 05:16:00,18.4,8.0,30.18,NE,55,0.0,0.0,64,0.00,,,0.00,weatherlink.com 1.10,2013-02-17 12:16:00,
2013-02-17 05:31:00,18.6,7.0,30.18,NE,54,0.0,0.0,62,0.00,,,0.00,weatherlink.com 1.10,2013-02-17 12:31:00,
2013-02-17 05:46:00,16.6,6.0,30.17,NE,54,0.0,0.0,64,0.00,,,0.00,weatherlink.com 1.10,2013-02-17 12:46:00,
2013-02-17 06:01:00,16.7,7.0,30.16,NE,54,0.0,4.0,65,0.00,,,0.00,weatherlink.com 1.10,2013-02-17 13:01:00,
2013-02-17 06:16:00,17.4,7.0,30.15,NE,53,0.0,1.0,64,0.00,,,0.00,weatherlink.com 1.10,2013-02-17 13:16:00,
2013-02-17 06:31:00,17.4,6.0,30.13,NE,55,4.0,4.0,60,0.00,,,0.00,weatherlink.com 1.10,2013-02-17 13:31:00,
2013-02-17 06:46:00,17.7,5.0,30.13,NE,55,0.0,5.0,59,0.00,,,0.00,weatherlink.com 1.10,2013-02-17 13:46:00,
2013-02-17 07:01:00,18.2,6.0,30.12,NE,55,3.0,3.0,59,0.00,,,0.00,weatherlink.com 1.10,2013-02-17 14:01:00,
2013-02-17 07:16:00,18.8,7.0,30.12,NE,55,0.0,0.0,59,0.00,,,0.00,weatherlink.com 1.10,2013-02-17 14:16:00,
2013-02-17 07:31:00,17.7,7.0,30.12,NE,55,0.0,0.0,63,0.00,,,0.00,weatherlink.com 1.10,2013-02-17 14:31:00,
2013-02-17 07:46:00,18.4,7.0,30.11,NE,55,0.0,0.0,61,0.00,,,0.00,weatherlink.com 1.10,2013-02-17 14:46:00,
2013-02-17 08:01:00,20.4,6.0,30.10,ENE,68,6.0,6.0,54,0.00,,,0.00,weatherlink.com 1.10,2013-02-17 15:01:00,
2013-02-17 08:16:00,20.3,6.0,30.10,NNE,15,2.0,8.0,53,0.00,,,0.00,weatherlink.com 1.10,2013-02-17 15:16:00,
2013-02-17 08:31:00,19.7,6.0,30.10,NNE,16,1.0,4.0,56,0.00,,,0.00,weatherlink.com 1.10,2013-02-17 15:31:00,
2013-02-17 08:46:00,21.9,7.0,30.09,NNE,16,3.0,5.0,53,0.00,,,0.00,weatherlink.com 1.10,2013-02-17 15:46:00,
2013-02-17 09:01:00,24.0,6.0,30.08,NNE,18,2.0,4.0,47,0.00,,,0.00,weatherlink.com 1.10,2013-02-17 16:01:00,
2013-02-17 09:16:00,25.5,9.0,30.07,SSW,211,0.0,0.0,50,0.00,,,0.00,weatherlink.com 1.10,2013-02-17 16:16:00,
2013-02-17 09:31:00,24.1,9.0,30.06,SSW,211,0.0,0.0,53,0.00,,,0.00,weatherlink.com 1.10,2013-02-17 16:31:00,
2013-02-17 09:46:00,26.2,10.0,30.05,NE,45,1.0,5.0,50,0.00,,,0.00,weatherlink.com 1.10,2013-02-17 16:46:00,
2013-02-17 10:01:00,28.1,10.0,30.04,NE,41,0.0,4.0,46,0.00,,,0.00,weatherlink.com 1.10,2013-02-17 17:01:00,
2013-02-17 10:16:00,28.4,11.0,30.03,North,356,0.0,0.0,49,0.00,,,0.00,weatherlink.com 1.10,2013-02-17 17:16:00,
2013-02-17 10:31:00,31.6,12.0,30.02,SW,224,4.0,7.0,44,0.00,,,0.00,weatherlink.com 1.10,2013-02-17 17:31:00,
2013-02-17 10:46:00,31.0,12.0,30.01,SSW,212,0.0,4.0,46,0.00,,,0.00,weatherlink.com 1.10,2013-02-17 17:46:00,
2013-02-17 11:01:00,33.7,9.0,30.00,SSW,203,4.0,6.0,35,0.00,,,0.00,weatherlink.com 1.10,2013-02-17 18:01:00,
2013-02-17 11:17:00,36.3,10.0,29.98,SSW,196,3.0,6.0,33,0.00,,,0.00,weatherlink.com 1.10,2013-02-17 18:17:00,
2013-02-17 11:32:00,36.3,9.0,29.98,SW,219,3.0,8.0,32,0.00,,,0.00,weatherlink.com 1.10,2013-02-17 18:32:00,
2013-02-17 11:47:00,37.1,9.0,29.96,SSW,194,3.0,10.0,31,0.00,,,0.00,weatherlink.com 1.10,2013-02-17 18:47:00,
2013-02-17 12:02:00,37.9,10.0,29.94,SSW,200,13.0,16.0,32,0.00,,,0.00,weatherlink.com 1.10,2013-02-17 19:02:00,
2013-02-17 12:17:00,37.7,10.0,29.93,SSW,197,8.0,16.0,32,0.00,,,0.00,weatherlink.com 1.10,2013-02-17 19:17:00,
2013-02-17 12:32:00,38.7,10.0,29.91,SSW,213,11.0,14.0,30,0.00,,,0.00,weatherlink.com 1.10,2013-02-17 19:32:00,
2013-02-17 12:47:00,38.8,10.0,29.89,SW,230,5.0,12.0,31,0.00,,,0.00,weatherlink.com 1.10,2013-02-17 19:47:00,
2013-02-17 13:02:00,38.9,10.0,29.88,WSW,240,3.0,11.0,30,0.00,,,0.00,weatherlink.com 1.10,2013-02-17 20:02:00,
2013-02-17 13:17:00,40.2,10.0,29.87,WSW,250,6.0,13.0,29,0.00,,,0.00,weatherlink.com 1.10,2013-02-17 20:17:00,
2013-02-17 13:32:00,39.8,11.0,29.86,SW,236,3.0,11.0,30,0.00,,,0.00,weatherlink.com 1.10,2013-02-17 20:32:00,
2013-02-17 13:47:00,40.8,12.0,29.84,SSW,207,4.0,9.0,31,0.00,,,0.00,weatherlink.com 1.10,2013-02-17 20:47:00,
2013-02-17 14:02:00,40.8,11.0,29.84,SW,226,3.0,6.0,30,0.00,,,0.00,weatherlink.com 1.10,2013-02-17 21:02:00,
2013-02-17 14:17:00,40.5,13.0,29.83,West,268,4.0,6.0,33,0.00,,,0.00,weatherlink.com 1.10,2013-02-17 21:17:00,
2013-02-17 14:32:00,40.4,11.0,29.83,WNW,285,2.0,13.0,30,0.00,,,0.00,weatherlink.com 1.10,2013-02-17 21:32:00,
2013-02-17 14:47:00,38.8,14.0,29.83,NW,312,8.0,14.0,37,0.00,,,0.00,weatherlink.com 1.10,2013-02-17 21:47:00,
2013-02-17 15:02:00,39.2,15.0,29.82,WNW,300,6.0,13.0,37,0.00,,,0.00,weatherlink.com 1.10,2013-02-17 22:02:00,
2013-02-17 15:17:00,39.3,14.0,29.82,NW,322,3.0,9.0,35,0.00,,,0.00,weatherlink.com 1.10,2013-02-17 22:17:00,
2013-02-17 15:32:00,40.2,14.0,29.82,WNW,288,7.0,10.0,35,0.00,,,0.00,weatherlink.com 1.10,2013-02-17 22:32:00,
2013-02-17 15:47:00,38.0,14.0,29.82,NW,306,13.0,16.0,37,0.00,,,0.00,weatherlink.com 1.10,2013-02-17 22:47:00,
2013-02-17 16:02:00,37.7,15.0,29.81,NW,308,15.0,18.0,39,0.00,,,0.00,weatherlink.com 1.10,2013-02-17 23:02:00,
2013-02-17 16:17:00,37.0,14.0,29.81,WNW,291,8.0,18.0,39,0.00,,,0.00,weatherlink.com 1.10,2013-02-17 23:17:00,
2013-02-17 16:32:00,36.5,14.0,29.80,West,281,2.0,8.0,40,0.00,,,0.00,weatherlink.com 1.10,2013-02-17 23:32:00,
2013-02-17 16:47:00,36.7,15.0,29.80,WNW,295,9.0,22.0,41,0.00,,,0.00,weatherlink.com 1.10,2013-02-17 23:47:00,
2013-02-17 17:02:00,36.8,14.0,29.80,WNW,291,14.0,18.0,39,0.00,,,0.00,weatherlink.com 1.10,2013-02-18 00:02:00,
2013-02-17 17:17:00,36.4,14.0,29.81,West,273,10.0,15.0,40,0.00,,,0.00,weatherlink.com 1.10,2013-02-18 00:17:00,
2013-02-17 17:32:00,36.2,15.0,29.81,WSW,257,9.0,11.0,42,0.00,,,0.00,weatherlink.com 1.10,2013-02-18 00:32:00,
2013-02-17 17:47:00,34.9,13.0,29.80,WSW,258,7.0,11.0,41,0.00,,,0.00,weatherlink.com 1.10,2013-02-18 00:47:00,
2013-02-17 18:02:00,34.4,13.0,29.81,WNW,292,10.0,15.0,42,0.00,,,0.00,weatherlink.com 1.10,2013-02-18 01:02:00,
2013-02-17 18:17:00,33.3,14.0,29.81,NW,306,8.0,14.0,45,0.00,,,0.00,weatherlink.com 1.10,2013-02-18 01:17:00,
2013-02-17 18:32:00,33.3,13.0,29.82,West,273,10.0,16.0,43,0.00,,,0.00,weatherlink.com 1.10,2013-02-18 01:32:00,
2013-02-17 18:47:00,33.2,13.0,29.82,WNW,283,8.0,10.0,44,0.00,,,0.00,weatherlink.com 1.10,2013-02-18 01:47:00,
2013-02-17 19:02:00,32.4,14.0,29.82,NW,307,1.0,12.0,47,0.00,,,0.00,weatherlink.com 1.10,2013-02-18 02:02:00,
2013-02-17 19:17:00,31.2,14.0,29.83,WNW,288,5.0,11.0,50,0.00,,,0.00,weatherlink.com 1.10,2013-02-18 02:17:00,
2013-02-17 19:32:00,31.7,14.0,29.83,WNW,285,6.0,10.0,49,0.00,,,0.00,weatherlink.com 1.10,2013-02-18 02:32:00,
2013-02-17 19:47:00,31.2,14.0,29.84,WNW,290,6.0,9.0,50,0.00,,,0.00,weatherlink.com 1.10,2013-02-18 02:47:00,
2013-02-17 20:02:00,29.9,19.0,29.86,NW,310,23.0,25.0,64,0.00,,,0.00,weatherlink.com 1.10,2013-02-18 03:02:00,
2013-02-17 20:17:00,28.5,19.0,29.86,West,271,15.0,21.0,68,0.00,,,0.00,weatherlink.com 1.10,2013-02-18 03:17:00,
2013-02-17 20:33:00,28.1,18.0,29.86,West,270,0.0,12.0,67,0.00,,,0.00,weatherlink.com 1.10,2013-02-18 03:33:00,
2013-02-17 20:47:00,27.0,18.0,29.86,SSW,203,0.0,2.0,69,0.00,,,0.00,weatherlink.com 1.10,2013-02-18 03:47:00,
2013-02-17 21:02:00,26.7,17.0,29.87,SW,227,6.0,8.0,68,0.00,,,0.00,weatherlink.com 1.10,2013-02-18 04:02:00,
2013-02-17 21:18:00,26.0,20.0,29.88,West,276,1.0,11.0,78,0.00,,,0.00,weatherlink.com 1.10,2013-02-18 04:18:00,
2013-02-17 21:33:00,25.0,21.0,29.88,West,272,0.0,7.0,84,0.00,,,0.00,weatherlink.com 1.10,2013-02-18 04:33:00,
2013-02-17 21:48:00,24.5,21.0,29.88,West,271,0.0,0.0,86,0.00,,,0.00,weatherlink.com 1.10,2013-02-18 04:48:00,
2013-02-17 22:03:00,24.4,21.0,29.89,West,273,0.0,2.0,87,0.00,,,0.00,weatherlink.com 1.10,2013-02-18 05:03:00,
2013-02-17 22:18:00,22.5,18.0,29.89,NNE,23,14.0,17.0,82,0.00,,,0.00,weatherlink.com 1.10,2013-02-18 05:18:00,
2013-02-17 22:33:00,20.9,17.0,29.89,NNE,20,7.0,14.0,85,0.00,,,0.00,weatherlink.com 1.10,2013-02-18 05:33:00,
2013-02-17 22:48:00,20.6,16.0,29.90,NNE,12,11.0,15.0,83,0.00,,,0.00,weatherlink.com 1.10,2013-02-18 05:48:00,
2013-02-17 23:03:00,20.1,16.0,29.91,North,11,6.0,10.0,84,0.00,,,0.00,weatherlink.com 1.10,2013-02-18 06:03:00,
2013-02-17 23:18:00,20.4,15.0,29.92,NNW,338,2.0,10.0,81,0.00,,,0.00,weatherlink.com 1.10,2013-02-18 06:18:00,
2013-02-17 23:33:00,20.5,17.0,29.93,WNW,287,6.0,8.0,86,0.00,,,0.00,weatherlink.com 1.10,2013-02-18 06:33:00,
2013-02-17 23:48:00,19.7,17.0,29.94,WNW,293,6.0,9.0,87,0.00,,,0.00,weatherlink.com 1.10,2013-02-18 06:48:00,